Weather in Malta

Russia / Irkutsk Oblast     52°50′17″N   103°31′20″E
temp.,
°C
wind,
m/s
gust,
m/s
humid.,
%
clouds,
%
prec.,
mm/h
press.,
hPa
HPBL,
m
26 february, fri
fri2623:00−10sse0192100 0.0 101231
02:00−10nw61485100 0.1 1018775
05:00−11nw51094100 0.3 1020725
08:00−11nw51093100 1.1 1022659
11:00−12nnw5893100 0.9 1021710
14:00−12nnw6988100 1.9 1020864
17:00−13nnw6984100 0.3 10221056
20:00−15nw41090100 0.4 1026619
27 february, sat
sat2723:00−18nw4109297 0.0 1030349
02:00−22wnw239783 0.0 103267
05:00−22wnw259895 0.0 1035126
08:00−20wnw389797 0.3 1038433
11:00−18nnw3584100 0.1 1038702
14:00−15nnw1172100 0.1 1036870
17:00−16ese127398 0.0 1035660
20:00−23ese118849 0.0 103920
28 february, sun
sun2823:00−24se229126 0.0 104020
02:00−25se239450 0.0 104031
05:00−27se229684 0.0 104023
08:00−27ese119590 0.0 104119
11:00−20nnw1186100 0.0 1039280
14:00−16nnw117698 0.0 1037480
17:00−15e017889 0.0 1037316
20:00−19se129194 0.0 103920
1 march, mon
mon123:00−20ese2292100 0.0 104031
02:00−23se239379 0.0 103843
05:00−25se229662 0.0 103720
08:00−26ese119555 0.0 103619
11:00−18se118147 0.0 1032247
14:00−12se127344 0.0 1028424
17:00−11ese127973 0.0 1025311
20:00−16e129173 0.0 102420
2 march, tue
tue223:00−17e1193100 0.0 102120
02:00−18sse1293100 0.0 101928
05:00−18ese1195100 0.0 101720
08:00−18ese0195100 0.0 101820
11:00−12wnw0185100 0.0 1015229
14:00−7nne117894 0.0 1013369
17:00−8nne1285100 0.0 1012294
20:00−11n1296100 0.1 101338